Regional Weather Roundup
Issued by NWS

Home | Current Version | Previous Version | Graphics & Text | Print | Product List | Glossary On
Versions: 1 2 3 4 5 6 7 8 9 10 11 12 13 14 15 16 17 18 19 20 21 22 23 24 25 26 27 28 29 30 31 32 33 34 35 36 37 38 39 40 41 42 43 44 45 46 47 48 49 50
000
ASUS43 KIND 280909
RWRIN

WEATHER ROUNDUP FOR INDIANA
NATIONAL WEATHER SERVICE INDIANAPOLIS IN
500 AM EDT TUE JUL 28 2015

NOTE: "FAIR" INDICATES FEW OR NO CLOUDS BELOW 12,000 FEET WITH NO
SIGNIFICANT WEATHER AND/OR OBSTRUCTIONS TO VISIBILITY.

* - STATION DOES NOT REPORT WEATHER SUCH AS PRECIPITATION OR FOG.

+ - STATION NOT QUALITY CONTROLLED BY THE NATIONAL WEATHER SERVICE.
    USE DATA WITH CAUTION...ESPECIALLY DEWPOINT AND RELATIVE
    HUMIDITY OBSERVATIONS.

INZ001>003-010>013-019-020-281000-
NORTHWEST INDIANA

CITY           SKY/WX    TMP DP  RH WIND       PRES   REMARKS
GARY /AIRPORT/ CLEAR     65  64  98 CALM      29.99F
KNOX *+        MOCLDY    64  63  94 E3        29.99S
LA PORTE +     CLEAR     65  65 100 CALM      30.01F
MICHIGAN CITY+ CLEAR     63  63 100 CALM      30.01S
MONTICELLO +   MOCLDY    70  66  85 E3        29.98S
RENSSELAER +   PTCLDY    68  68 100 E6        29.98F
VALPARAISO     CLEAR     66  62  87 NE6       30.00F

$$

LMZ046-743>745-281000-
SOUTHERN LAKE MICHIGAN

STATION/POSITION TIME  TEMP    WIND        PRES    WAVE
                       AIR SEA DIR/SP/G            HT
                 (UTC) (F)     (DEG/KT/KT) (MB)    (FT)
BURNS HARBOR     0800   77     130/  9/ 12 1016.3S
MICHIGAN CITY    0800   73     110/  6/  8   N/A
5NW MICH CITY    0900   74 74  150/  6/  8   N/A     1

$$

INZ004-005-014>016-021>024-281000-
NORTH CENTRAL INDIANA

CITY           SKY/WX    TMP DP  RH WIND       PRES   REMARKS
GOSHEN         CLEAR     63  60  90 CALM      30.02S
LOGANSPORT +   MOCLDY    70  61  73 E6        29.99S
PERU/GRISSOM   MOCLDY    70  65  85 E3        29.99S
ROCHESTER +    PTCLDY    70  64  83 CALM      30.01R
SOUTH BEND     CLEAR     67  62  84 E3        30.01F
WARSAW +       CLEAR     64  63  94 CALM      30.02R

$$

INZ006>009-017-018-025>027-281000-
NORTHEAST INDIANA

CITY           SKY/WX    TMP DP  RH WIND       PRES   REMARKS
ANGOLA *+      CLEAR     61  50  67 CALM      30.03S
AUBURN +       CLEAR     64  59  82 CALM      30.03S
FORT WAYNE     PTCLDY    67  62  84 NE5       30.02S
HUNTINGTON +   CLOUDY    69  66  88 CALM      30.00S

$$

INZ028-029-035-036-043>045-051>053-281000-
WEST CENTRAL INDIANA

CITY           SKY/WX    TMP DP  RH WIND       PRES   REMARKS
CRAWFORDSVL +  PTCLDY    69  69 100 E3          N/A  FOG
GREENCASTLE +  PTCLDY    72  68  88 CALM      29.98S FOG
LAFAYETTE      PTCLDY    70  67  90 NE6       29.96F
TERRE HAUTE    MOCLDY    73  72  96 E5        29.95F FOG

$$

INZ030>032-037>040-046>048-054>057-064-065-281000-
CENTRAL INDIANA

CITY           SKY/WX    TMP DP  RH WIND       PRES   REMARKS
FRANKFORT +    PTCLDY   N/A N/A N/A CALM      30.00S HAZE
INDIANAPOLIS   PTCLDY    75  70  84 NE6       29.97F
-EAGLE CREEK   CLEAR     73  71  93 CALM      29.97F
KOKOMO *+      MOCLDY    66  63  88 E5        29.99S
MARION +       CLOUDY    69  64  84 CALM      30.00S
MT COMFORT *+    N/A     70 N/A N/A CALM      29.99S
SHELBYVILLE    PTCLDY    72  69  90 N3        29.97S FOG
ZIONSVILLE +   MOCLDY    70  67  90 CALM      29.99S FOG

$$

INZ033-034-041-042-049-050-058-059-281000-
EAST CENTRAL INDIANA

CITY           SKY/WX    TMP DP  RH WIND       PRES   REMARKS
MUNCIE         PTCLDY    69  66  90 CALM      29.99F

$$

INZ060-061-067>069-081>083-085>088-281000-
SOUTHWEST INDIANA

CITY           SKY/WX    TMP DP  RH WIND       PRES   REMARKS
EVANSVILLE     PTCLDY    74  71  91 SW5       29.95S
HUNTINGBURG *+ MOCLDY    75  72  88 CALM      29.95S
WASHINGTON +   PTCLDY    73  70  88 CALM      29.94R

$$

INZ062-063-066-070>080-084-089>092-281000-
SOUTH CENTRAL AND SOUTHEAST INDIANA

CITY           SKY/WX    TMP DP  RH WIND       PRES   REMARKS
BLOOMINGTON    PTCLDY    73  71  93 CALM      29.97S
MADISON *+     PTCLDY    73  70  88 CALM      30.00R

$$



USA.gov is the U.S. government's official web portal to all federal, state and local government web resources and services.